Temperature
24 24 23 22 21 21 23 24 24 25 24 24 25 24 23 21 21 21 21 22 21 21 20 20 20 20 20 20 20 20 19 19 19 19 19 19 19 19 19 19 19 19 19 19 19 19 19 19 19
24 24 23 22 21 23 24 24 24 24 24 25 24 23 21 20 21 21 21 21 21 21 20 20 20 20 20 20 20 20 20 19 19 19 19 19 19 19 19 19 19 19 19 19 19 19 19 19 19
24 24 23 21 22 23 24 25 24 25 25 25 24 22 21 20 20 22 22 21 21 21 21 21 21 20 20 20 20 20 20 20 19 19 19 19 19 19 19 19 19 19 19 19 19 19 19 19 19
24 24 23 21 24 24 25 25 25 25 25 25 23 21 21 21 22 22 22 21 21 21 21 21 21 21 21 20 20 20 20 20 20 19 19 19 19 19 19 19 19 19 19 19 19 19 19 19 19
24 24 21 21 23 24 25 26 26 25 25 24 23 21 20 21 22 22 22 21 21 21 21 21 21 21 21 21 20 20 20 20 19 19 19 19 19 19 19 19 19 19 19 19 19 19 19 18 18
25 21 21 22 23 25 26 27 26 25 24 23 22 20 20 21 22 22 22 22 21 21 21 21 21 21 21 21 20 20 20 20 19 19 19 19 19 19 19 19 19 19 18 18 19 18 18 18 18
23 20 22 23 23 25 27 27 26 24 24 23 23 20 19 21 22 22 22 21 21 21 21 21 21 21 21 20 20 20 20 19 19 19 19 19 19 19 19 19 18 18 18 18 18 18 18 18 18
24 19 22 22 24 25 26 27 27 25 24 24 23 21 20 21 21 21 21 21 21 21 21 21 21 21 20 20 20 20 19 19 19 19 19 19 19 19 19 18 18 18 18 18 18 18 18 18 18
23 19 21 23 24 25 26 26 27 26 25 24 24 24 24 22 21 21 21 20 20 21 20 20 20 20 20 20 19 19 19 19 19 19 19 19 19 19 19 18 18 18 18 18 18 18 18 18 18
22 19 21 23 24 25 25 25 26 25 24 24 23 23 23 21 21 21 21 21 21 21 21 21 20 20 20 20 19 19 19 19 19 19 19 19 19 19 18 18 18 18 18 17 18 18 18 18 18
22 21 22 23 25 25 25 26 26 25 23 24 24 24 23 21 21 21 21 22 22 22 21 21 21 20 20 20 20 19 19 19 19 19 19 19 19 18 18 18 18 18 17 17 17 17 18 18 18
22 22 23 25 26 25 25 26 26 25 26 27 27 26 24 22 22 21 22 22 22 21 21 21 21 21 20 20 20 19 19 19 19 19 19 19 18 18 18 18 18 17 17 17 18 18 18 18 18
23 23 24 25 26 26 26 25 25 26 27 26 26 24 24 23 22 22 22 22 22 21 21 21 21 21 20 20 20 19 19 19 19 19 19 18 18 18 18 18 17 17 17 17 18 18 18 18 18
23 23 24 25 25 25 25 24 24 26 26 25 25 24 23 23 22 22 22 22 22 22 21 21 21 21 20 20 20 19 19 19 19 18 18 18 18 18 18 18 17 17 17 17 17 17 18 18 18
23 22 22 24 24 25 25 24 24 26 24 24 23 23 22 22 22 23 23 22 22 22 22 21 21 21 20 20 20 19 19 18 18 18 18 18 18 18 18 17 17 17 17 17 17 17 17 18 18
22 21 22 22 23 25 25 25 24 25 23 22 22 22 21 22 22 23 23 23 22 22 22 21 21 21 20 20 20 19 19 18 18 18 18 18 18 18 18 17 17 17 17 17 17 17 17 17 18
19 20 22 22 23 23 24 24 23 24 22 21 21 21 21 21 22 22 22 22 22 22 22 21 21 21 21 20 20 19 19 19 18 18 18 18 18 18 18 18 18 18 18 17 17 17 17 17 17
21 21 21 21 22 23 23 22 21 22 21 21 21 21 21 22 22 22 22 22 22 22 21 21 21 21 20 20 19 19 18 18 18 18 18 18 18 18 18 18 18 18 18 18 17 17 17 17 17
21 21 20 21 22 22 22 21 20 20 20 20 20 20 21 21 21 21 21 21 21 21 21 21 20 20 20 19 19 18 18 18 18 18 18 18 18 18 18 18 18 18 18 17 17 17 17 16 16
21 21 21 21 22 22 21 21 19 19 19 19 19 19 19 20 20 20 20 20 20 20 20 20 20 20 20 20 19 19 18 18 18 18 18 18 18 18 18 18 18 18 17 17 17 16 16 16 16
22 21 22 22 21 21 21 20 19 18 18 18 18 19 19 19 20 20 20 20 19 20 20 19 19 19 19 19 19 18 18 18 17 17 18 18 18 18 18 18 18 18 17 17 17 16 16 16 16
21 22 22 22 20 19 20 18 18 16 17 17 16 17 17 18 18 19 19 19 19 19 19 19 19 19 19 18 18 17 17 17 17 17 17 18 18 18 18 18 17 17 17 16 16 16 15 15 15
22 21 21 20 20 19 18 18 17 15 16 16 16 16 17 17 17 17 18 18 18 18 18 19 19 19 19 18 18 17 17 17 17 17 17 17 17 17 17 17 17 17 16 16 15 15 15 15 15
21 19 18 15 16 17 18 17 16 16 16 16 15 16 16 17 17 17 17 17 17 17 17 17 18 18 18 18 17 16 16 16 16 16 15 16 16 16 16 16 16 16 16 15 15 15 15 15 15
19 17 16 16 15 16 17 16 15 16 16 15 15 15 16 17 17 17 16 16 17 17 16 16 16 16 16 16 16 15 15 15 15 15 15 15 16 16 16 16 16 15 15 15 15 14 14 14 14
18 17 16 16 15 15 16 16 15 15 15 15 15 15 16 16 16 16 16 16 16 16 16 15 15 15 15 15 14 14 14 14 14 15 15 15 15 15 15 15 15 15 15 14 14 14 14 14 14
18 16 16 14 15 14 14 14 15 14 14 14 14 14 15 16 16 16 16 15 15 15 15 15 14 15 14 14 14 14 14 14 14 14 14 14 14 14 14 14 15 14 14 14 14 14 14 14 13
16 14 13 14 15 14 14 14 14 15 14 14 13 14 16 16 16 15 15 15 14 14 14 14 14 14 14 14 13 13 13 13 13 14 14 14 14 14 14 14 14 14 14 14 14 13 13 13 13
16 14 12 11 12 13 13 13 14 14 14 13 13 15 16 16 15 15 14 14 14 13 13 13 13 13 13 13 13 13 13 13 13 13 13 14 14 14 14 14 14 14 13 13 13 13 13 13 13
16 15 12 14 14 11 11 12 14 13 13 13 14 15 16 15 15 14 14 14 13 13 13 13 13 13 13 13 13 13 13 13 13 13 13 13 14 14 13 13 13 13 13 12 12 12 12 12 12
Wind_Speed
3 2 3 2 2 4 3 2 1 2 2 2 4 4 7 5 4 3 2 12 15 15 17 20 20 19 18 16 16 15 14 13 13 13 13 13 12 12 12 11 10 9 8 7 6 6 7 7 8
2 2 1 3 4 3 5 2 1 1 4 5 6 5 5 2 2 6 7 9 15 15 17 19 21 19 18 16 15 15 14 13 12 12 12 12 12 12 12 11 10 9 8 7 6 5 6 6 7
3 1 3 4 3 1 5 2 1 3 5 3 4 5 4 4 6 6 7 12 13 11 16 20 22 20 18 16 15 14 14 12 11 11 10 10 10 10 10 10 9 8 7 6 5 5 5 5 6
3 4 5 5 2 4 4 3 3 6 3 4 5 5 3 3 7 7 13 14 13 10 14 19 22 21 19 18 16 15 14 12 11 10 9 8 8 8 8 7 6 6 5 5 5 4 4 4 5
3 4 5 4 5 6 4 1 6 3 2 4 5 5 3 3 8 14 15 15 14 10 13 17 21 20 20 19 17 16 14 12 11 9 8 7 7 6 6 5 5 5 4 4 4 5 5 5 5
4 5 4 3 7 7 4 1 4 2 2 4 5 5 2 5 12 13 14 13 12 12 11 15 21 20 19 18 17 16 14 12 11 10 9 8 7 7 6 6 5 5 5 5 5 6 6 6 7
4 5 3 2 5 6 6 3 5 5 3 5 5 5 3 6 10 13 11 10 9 8 8 10 15 18 18 18 17 16 14 12 11 10 10 9 8 8 7 7 7 7 7 7 7 7 8 8 8
5 5 3 2 3 5 7 7 1 7 5 6 5 7 6 8 11 11 9 8 8 7 7 7 10 12 13 15 16 15 14 12 11 10 10 10 9 9 9 8 9 9 10 10 10 10 10 10 10
4 5 2 4 2 4 6 7 3 3 6 5 4 7 7 15 15 13 9 8 9 10 7 6 6 8 10 10 13 14 14 13 12 11 11 11 9 8 8 9 11 12 13 13 13 13 13 13 12
5 3 6 4 3 4 6 4 4 3 3 3 3 5 14 18 17 16 15 15 15 14 12 8 7 6 8 9 9 9 10 10 11 9 9 9 8 8 9 10 13 15 16 16 16 16 15 14 11
4 5 4 5 5 4 5 6 2 7 6 9 9 14 21 19 16 16 16 15 15 12 12 11 9 7 7 6 6 7 7 8 9 10 9 8 7 7 8 8 11 13 15 14 14 14 12 11 11
2 5 5 5 4 4 4 4 3 8 10 7 12 20 25 22 20 19 17 16 12 10 12 10 10 8 8 7 6 7 6 6 7 9 10 8 6 6 7 8 10 11 11 11 11 10 11 11 12
3 5 5 6 10 7 5 5 5 8 6 6 13 17 21 20 18 15 14 13 12 13 13 11 11 11 9 7 5 6 6 7 8 9 10 10 7 6 7 7 9 11 11 10 9 8 8 9 10
4 5 8 9 8 4 3 3 3 7 4 10 14 16 17 17 16 14 13 13 13 14 14 12 13 12 10 9 7 5 7 9 8 10 12 13 12 9 7 7 7 9 11 11 9 8 7 7 7
3 5 8 6 5 3 1 4 5 4 8 10 12 13 14 13 14 16 17 15 14 14 13 13 14 13 12 11 9 7 8 9 9 11 14 14 14 12 9 8 8 9 12 11 8 8 7 7 8
4 4 4 8 5 5 1 6 8 5 10 11 11 11 11 11 13 13 13 12 12 12 13 14 13 13 14 12 10 7 8 8 9 11 12 14 14 14 9 8 9 10 9 7 6 6 6 7 8
6 4 4 8 5 5 2 6 8 5 11 12 11 11 10 9 10 10 12 13 13 13 12 12 12 13 14 12 10 8 7 7 8 9 9 10 11 12 9 7 7 8 6 6 7 6 6 7 8
3 3 4 7 7 7 5 6 8 3 9 10 9 8 9 11 11 6 7 8 8 8 9 11 11 10 10 8 6 4 4 4 4 4 6 7 7 7 6 5 5 5 4 5 6 7 7 7 8
2 3 6 7 5 3 5 6 9 5 2 4 4 5 6 7 3 1 1 2 3 4 5 6 7 7 7 5 6 5 4 3 3 2 3 3 3 1 2 2 3 3 4 6 6 6 8 7 5
3 3 5 6 6 4 4 5 7 8 5 2 1 3 4 5 5 4 4 3 2 2 1 2 3 4 6 6 5 3 3 3 2 2 1 1 2 2 1 2 3 3 4 6 7 6 6 5 5
1 2 3 4 5 6 6 8 7 7 10 11 9 4 2 2 3 3 3 3 3 1 0 2 3 3 4 3 2 2 2 2 2 2 1 1 2 2 2 2 3 4 4 6 7 7 9 8 6
3 3 3 2 3 4 5 4 5 7 9 12 11 9 7 5 4 3 2 2 2 1 2 4 4 4 3 3 3 3 4 4 4 3 2 1 1 2 3 3 3 4 4 5 7 7 8 9 8
2 3 3 2 2 2 4 0 5 6 7 9 10 9 8 7 5 4 3 2 1 1 2 5 6 6 5 5 5 6 4 3 2 2 2 1 1 1 3 3 3 4 4 5 6 7 7 7 8
2 5 6 6 5 1 2 1 5 1 3 5 6 7 7 7 6 5 4 3 2 1 0 1 3 3 4 5 5 4 4 5 5 3 3 1 0 1 3 4 4 4 4 4 5 5 5 5 6
7 6 5 6 5 5 4 3 7 3 2 3 4 5 4 5 5 5 5 5 4 2 2 2 2 2 2 3 5 5 5 4 5 4 3 2 1 1 3 3 3 3 4 5 5 5 5 5 4
2 6 5 3 4 6 6 5 6 4 4 5 5 5 5 5 5 5 5 4 5 4 3 3 3 3 3 4 5 4 5 4 3 3 3 2 2 1 1 2 3 4 4 5 5 4 5 5 4
5 3 4 6 1 3 6 7 6 3 5 7 7 7 8 8 7 7 6 6 5 5 4 3 3 3 5 6 5 4 5 4 4 3 3 2 1 1 2 2 3 4 4 5 5 4 4 4 4
4 7 5 4 2 5 7 5 5 7 9 9 8 9 10 9 8 8 7 6 5 5 5 2 1 2 3 5 5 5 5 5 5 4 4 3 2 2 3 4 4 5 5 5 4 4 4 4 4
3 4 5 4 4 4 5 8 7 9 9 9 10 10 10 10 9 8 7 5 5 4 3 2 0 1 1 2 4 5 5 5 5 4 3 3 3 3 4 4 5 5 6 6 5 5 4 4 4
4 6 7 4 4 5 4 8 8 9 9 8 10 10 9 9 8 7 6 5 3 2 2 1 0 1 1 2 3 4 5 5 4 4 4 4 5 5 5 5 6 6 6 6 6 5 5 5 6
Wind_Direction
249 202 153 143 55 35 344 310 291 346 36 37 126 120 130 134 179 196 120 144 140 148 157 160 160 159 157 152 149 146 145 144 143 141 139 139 141 144 143 143 144 144 143 140 137 138 139 138 138
224 160 110 64 67 20 311 290 293 232 144 114 87 79 83 98 76 112 136 147 145 149 156 160 164 165 164 160 157 154 153 153 151 148 145 145 148 152 153 152 152 153 152 151 151 153 156 157 158
206 159 79 64 76 214 284 300 147 116 161 112 85 74 109 159 142 144 154 143 140 147 155 164 166 169 169 168 167 165 164 163 159 155 154 153 155 158 161 162 163 165 168 170 172 173 172 174 178
134 54 52 58 326 255 257 283 138 128 145 82 104 93 83 145 154 144 141 144 143 146 155 169 169 171 173 174 176 176 175 173 170 166 165 164 164 166 169 173 176 181 188 197 202 204 203 200 204
63 76 50 10 302 279 275 243 143 135 119 102 120 111 63 84 117 134 143 150 152 151 159 174 172 174 176 178 181 183 183 182 180 179 179 179 179 181 185 190 196 202 209 218 227 231 233 234 237
53 64 70 335 306 302 316 76 135 121 110 117 126 119 131 132 136 148 150 153 157 158 162 175 176 178 181 183 185 187 189 189 189 190 192 195 197 200 203 212 219 223 224 228 235 242 247 251 255
99 93 137 245 296 322 354 351 143 142 152 164 140 115 136 165 161 151 146 144 149 155 158 171 178 182 186 188 190 193 195 195 195 197 201 206 212 215 218 228 238 243 244 244 246 252 258 261 263
116 102 118 243 271 306 338 348 134 149 165 142 136 153 183 186 156 141 130 133 147 161 166 168 170 176 184 192 196 198 201 204 205 205 208 214 221 228 234 239 248 253 254 253 254 257 261 265 267
84 80 174 220 224 293 335 346 340 127 129 155 175 178 178 150 146 141 138 149 169 181 180 174 168 169 172 183 198 201 205 210 213 215 218 220 226 237 246 250 253 257 258 259 260 262 263 265 266
87 139 222 230 223 281 305 303 283 137 146 176 108 109 134 149 156 161 167 176 185 191 191 185 178 167 165 180 190 194 201 206 212 216 225 227 224 233 245 255 261 265 266 266 266 265 266 268 266
137 189 235 258 253 264 289 299 279 157 209 210 184 156 151 163 169 174 180 184 190 190 191 191 184 171 169 174 175 184 192 199 209 216 222 229 233 240 248 256 264 270 275 273 268 268 265 261 260
208 234 228 260 269 279 257 269 260 198 226 210 169 160 161 173 180 184 185 187 185 185 194 189 185 179 179 179 182 187 191 200 211 219 222 222 230 239 243 249 256 263 267 267 264 258 258 259 260
242 266 267 263 283 261 247 237 236 244 258 129 141 159 172 181 186 189 190 189 184 190 192 187 185 187 186 186 190 193 200 209 216 222 227 223 228 238 244 249 254 259 263 262 260 255 256 260 264
267 273 287 283 281 270 248 293 211 258 147 140 154 170 181 188 188 188 190 193 193 194 194 188 190 192 189 194 197 200 206 214 218 225 231 229 231 236 240 248 252 256 256 254 250 250 255 264 267
286 299 316 303 305 302 47 325 249 235 148 161 172 177 184 192 193 199 197 196 196 197 193 190 194 193 192 196 201 207 210 212 219 229 233 231 231 234 237 245 253 255 253 249 250 255 258 265 268
13 30 346 307 320 323 92 279 277 183 165 181 184 184 191 198 202 204 202 199 196 195 194 195 196 193 195 197 199 207 210 213 222 229 232 233 234 235 234 240 250 252 248 241 241 246 253 258 262
20 7 324 312 320 349 27 270 293 195 184 192 192 193 195 203 213 210 203 202 201 198 195 195 196 193 197 199 198 202 204 209 218 220 222 228 230 229 225 234 246 250 242 240 245 245 240 254 260
289 315 319 306 309 347 349 307 323 246 203 205 199 199 202 212 220 213 204 206 206 205 201 201 199 195 192 191 184 184 189 196 201 206 210 211 217 220 216 229 244 245 246 252 249 255 253 252 260
238 285 294 283 301 340 336 335 343 350 241 228 216 214 227 235 268 330 258 221 202 210 211 207 201 195 179 176 177 177 187 182 179 183 194 193 194 194 201 242 267 263 256 260 260 262 266 262 251
237 286 297 304 341 21 352 355 3 25 15 358 334 304 303 324 337 332 337 335 302 250 231 203 204 198 192 191 181 173 163 165 150 136 119 70 56 31 1 312 295 285 278 276 268 261 266 263 233
348 212 274 293 339 19 18 358 12 16 25 29 24 3 329 285 278 296 323 316 317 320 246 179 191 192 198 190 160 126 125 124 138 159 180 333 4 16 354 323 313 302 287 283 279 268 265 270 257
334 301 278 310 30 335 23 320 338 352 16 17 8 358 343 340 330 319 330 315 292 196 157 159 159 157 158 160 181 205 205 195 186 181 187 256 331 0 3 352 341 327 313 296 288 279 268 269 271
272 20 43 32 118 3 13 273 295 354 12 1 354 352 348 351 345 344 350 349 28 87 145 160 159 156 154 162 178 200 207 197 155 144 176 210 301 18 19 8 2 354 339 322 309 302 286 273 270
62 63 49 42 64 342 303 272 278 328 340 330 338 343 345 345 346 347 351 4 18 36 45 195 179 166 164 152 153 172 170 156 148 162 183 193 238 42 24 15 14 4 352 341 332 323 317 303 286
56 67 18 357 4 262 288 258 241 208 220 261 279 292 310 318 324 331 337 336 329 345 342 286 243 208 163 139 135 143 149 158 167 176 177 166 135 58 13 7 4 1 353 349 345 341 344 342 335
86 128 150 230 245 281 312 258 251 211 222 241 250 259 274 281 289 294 298 305 305 304 301 279 244 204 153 140 137 145 144 151 162 165 160 152 135 114 5 4 6 3 360 358 354 346 346 348 359
126 124 154 142 205 278 282 295 298 224 245 245 251 259 264 265 267 270 281 287 288 290 288 276 241 201 161 151 150 155 153 150 150 149 140 133 131 120 39 30 20 7 1 357 352 343 343 348 360
90 137 98 119 214 281 292 282 253 236 243 247 250 255 261 264 266 266 265 270 281 287 291 294 241 184 169 164 164 161 160 153 148 143 131 118 103 72 48 32 22 9 1 355 350 336 337 355 357
102 95 104 116 156 183 272 274 232 228 234 241 253 257 264 271 271 267 266 260 262 276 283 284 185 135 168 177 166 155 158 155 144 132 111 94 70 52 47 37 28 19 10 1 357 351 351 6 12
195 173 150 160 222 192 215 269 260 241 251 249 261 270 275 278 278 269 266 263 253 262 287 290 277 142 167 171 164 158 154 146 131 108 86 76 65 56 55 51 43 31 20 12 11 13 26 37 40
Height
1504 1503 1503 1503 1505 1510 1511 1505 1500 1498 1498 1498 1500 1501 1503 1506 1509 1513 1508 1509 1514 1518 1522 1526 1530 1533 1535 1537 1539 1541 1542 1543 1545 1546 1547 1548 1549 1550 1551 1553 1554 1555 1556 1557 1558 1559 1559 1560 1560
1504 1503 1504 1504 1510 1521 1513 1501 1500 1498 1498 1498 1500 1502 1503 1504 1504 1504 1506 1510 1514 1518 1522 1526 1531 1534 1536 1538 1540 1542 1543 1545 1546 1547 1549 1549 1550 1551 1552 1553 1555 1556 1557 1558 1559 1559 1560 1560 1561
1504 1504 1504 1506 1513 1518 1511 1499 1498 1497 1498 1499 1501 1502 1503 1503 1503 1505 1507 1511 1515 1519 1523 1526 1530 1534 1537 1539 1541 1543 1545 1546 1548 1549 1550 1551 1552 1552 1553 1555 1556 1557 1558 1559 1560 1560 1560 1561 1561
1505 1505 1505 1511 1513 1507 1502 1497 1497 1498 1500 1500 1502 1504 1504 1504 1505 1507 1509 1512 1516 1519 1523 1527 1530 1534 1537 1539 1542 1544 1546 1548 1549 1550 1551 1552 1553 1554 1555 1556 1557 1558 1559 1559 1560 1560 1561 1561 1561
1505 1505 1511 1519 1513 1504 1497 1495 1497 1499 1500 1501 1502 1504 1505 1505 1507 1509 1511 1513 1516 1520 1524 1527 1531 1534 1537 1540 1542 1544 1546 1548 1550 1551 1552 1553 1554 1555 1556 1557 1558 1558 1559 1560 1560 1560 1560 1560 1560
1505 1506 1521 1524 1513 1502 1496 1495 1496 1499 1500 1501 1502 1503 1505 1506 1508 1510 1513 1515 1518 1521 1524 1528 1531 1534 1537 1540 1542 1544 1546 1548 1549 1551 1552 1553 1554 1555 1556 1557 1558 1558 1559 1559 1560 1560 1560 1559 1559
1506 1512 1519 1517 1514 1505 1498 1496 1496 1498 1500 1501 1501 1503 1504 1506 1509 1511 1514 1516 1519 1522 1525 1528 1531 1534 1537 1540 1542 1544 1546 1548 1549 1551 1552 1553 1554 1555 1556 1557 1558 1558 1559 1559 1559 1559 1559 1558 1558
1505 1511 1516 1517 1514 1507 1500 1497 1496 1496 1498 1500 1501 1501 1502 1503 1508 1511 1513 1516 1519 1522 1525 1528 1530 1533 1536 1539 1541 1543 1545 1547 1549 1550 1551 1553 1554 1555 1556 1556 1557 1557 1557 1558 1558 1557 1557 1556 1556
1506 1516 1521 1514 1511 1507 1501 1499 1497 1496 1497 1499 1499 1499 1500 1503 1506 1509 1512 1515 1518 1521 1523 1527 1529 1532 1535 1538 1540 1542 1544 1546 1548 1549 1551 1552 1553 1554 1554 1555 1556 1556 1556 1556 1556 1555 1555 1554 1554
1506 1519 1514 1507 1505 1504 1501 1500 1497 1497 1497 1497 1498 1498 1500 1502 1504 1507 1509 1512 1515 1518 1521 1525 1528 1531 1534 1536 1538 1541 1543 1545 1547 1548 1549 1550 1551 1552 1553 1553 1554 1554 1555 1554 1554 1554 1553 1552 1551
1506 1510 1507 1504 1503 1502 1500 1497 1496 1496 1497 1494 1493 1495 1497 1500 1503 1506 1508 1510 1513 1517 1520 1523 1526 1529 1532 1534 1537 1539 1541 1543 1545 1547 1548 1549 1550 1550 1551 1551 1552 1552 1553 1552 1552 1552 1551 1550 1549
1506 1504 1503 1501 1500 1499 1497 1495 1494 1493 1491 1490 1491 1493 1494 1497 1500 1502 1505 1509 1512 1515 1518 1522 1524 1527 1530 1533 1535 1537 1539 1542 1543 1545 1546 1547 1548 1548 1549 1549 1550 1550 1551 1550 1550 1549 1548 1547 1546
1504 1503 1501 1499 1497 1495 1493 1493 1493 1489 1489 1490 1491 1493 1494 1496 1498 1502 1506 1509 1511 1514 1517 1520 1523 1525 1528 1530 1533 1535 1538 1540 1542 1543 1544 1545 1546 1547 1547 1548 1548 1548 1548 1548 1547 1547 1546 1545 1544
1503 1502 1499 1496 1493 1491 1491 1491 1491 1487 1488 1489 1490 1492 1494 1496 1498 1501 1504 1507 1509 1512 1516 1518 1520 1523 1526 1529 1531 1534 1536 1538 1540 1542 1542 1543 1544 1545 1545 1545 1545 1545 1545 1545 1544 1543 1543 1542 1541
1502 1502 1499 1494 1492 1490 1491 1493 1489 1486 1487 1488 1490 1492 1494 1496 1498 1499 1501 1504 1507 1511 1514 1516 1518 1521 1523 1526 1529 1532 1534 1536 1538 1539 1540 1541 1542 1542 1542 1542 1542 1542 1542 1541 1541 1540 1539 1538 1537
1502 1506 1508 1498 1493 1491 1495 1499 1487 1486 1486 1488 1490 1492 1494 1495 1496 1498 1501 1503 1506 1509 1511 1514 1516 1518 1520 1523 1526 1529 1531 1533 1535 1536 1537 1538 1538 1539 1538 1538 1538 1538 1538 1537 1537 1536 1535 1534 1533
1512 1516 1512 1504 1494 1492 1494 1497 1487 1485 1485 1486 1488 1490 1493 1495 1496 1497 1500 1502 1505 1507 1509 1511 1513 1515 1517 1520 1522 1525 1527 1529 1531 1532 1533 1534 1535 1535 1534 1534 1534 1534 1533 1533 1532 1531 1531 1529 1529
1517 1514 1512 1509 1497 1495 1496 1496 1489 1486 1486 1486 1488 1490 1492 1493 1494 1497 1500 1502 1505 1507 1508 1510 1511 1512 1514 1517 1518 1521 1522 1523 1526 1528 1529 1530 1530 1531 1530 1530 1530 1530 1529 1528 1528 1527 1525 1524 1524
1509 1511 1514 1506 1496 1497 1498 1497 1493 1488 1488 1489 1490 1491 1492 1493 1496 1499 1501 1502 1504 1506 1507 1508 1509 1510 1511 1512 1514 1515 1517 1518 1520 1523 1525 1525 1526 1527 1527 1527 1526 1525 1524 1523 1522 1521 1519 1518 1518
1508 1512 1511 1503 1496 1497 1499 1499 1496 1493 1493 1493 1494 1495 1495 1496 1498 1499 1500 1502 1503 1504 1505 1506 1507 1508 1509 1510 1510 1511 1512 1513 1515 1517 1519 1521 1522 1522 1522 1522 1521 1520 1518 1517 1516 1515 1513 1511 1512
1506 1509 1508 1506 1501 1500 1501 1506 1503 1500 1497 1496 1496 1496 1495 1496 1496 1497 1498 1499 1501 1501 1502 1504 1505 1506 1507 1507 1508 1507 1508 1508 1509 1511 1514 1516 1517 1517 1518 1517 1515 1514 1513 1511 1510 1509 1507 1504 1504
1511 1503 1502 1503 1509 1516 1511 1524 1512 1509 1504 1501 1499 1497 1496 1496 1495 1495 1495 1496 1497 1496 1498 1499 1500 1501 1502 1502 1503 1503 1502 1502 1504 1506 1509 1511 1512 1513 1513 1512 1511 1509 1507 1506 1504 1503 1501 1499 1497
1504 1502 1504 1506 1510 1517 1517 1522 1520 1512 1510 1507 1503 1500 1497 1496 1495 1494 1493 1493 1493 1492 1493 1493 1494 1495 1495 1495 1496 1497 1496 1497 1499 1502 1505 1506 1507 1508 1508 1508 1506 1505 1503 1502 1500 1499 1497 1495 1493
1502 1507 1512 1518 1523 1530 1520 1525 1525 1515 1512 1509 1505 1502 1498 1496 1495 1493 1492 1492 1491 1490 1490 1490 1490 1489 1490 1489 1489 1490 1490 1492 1494 1498 1500 1502 1503 1503 1504 1503 1502 1501 1500 1499 1497 1495 1493 1491 1490
1507 1520 1536 1537 1542 1537 1522 1523 1522 1510 1509 1508 1506 1502 1499 1497 1495 1493 1492 1491 1489 1488 1487 1487 1487 1486 1486 1485 1485 1487 1487 1490 1492 1495 1497 1498 1499 1500 1500 1500 1499 1498 1497 1496 1495 1493 1491 1489 1487
1512 1519 1538 1545 1547 1538 1525 1524 1516 1507 1507 1506 1504 1501 1499 1497 1495 1493 1491 1490 1488 1487 1485 1485 1484 1483 1482 1483 1484 1486 1486 1489 1492 1494 1494 1495 1495 1496 1496 1496 1496 1495 1495 1493 1492 1491 1489 1488 1486
1514 1521 1522 1536 1538 1543 1534 1523 1511 1507 1506 1504 1502 1500 1497 1495 1493 1492 1490 1488 1487 1485 1484 1482 1481 1481 1480 1481 1483 1485 1486 1488 1490 1491 1492 1492 1493 1493 1493 1494 1494 1493 1492 1491 1491 1490 1488 1487 1485
1512 1519 1530 1536 1541 1547 1537 1528 1520 1507 1504 1501 1499 1497 1494 1493 1491 1489 1487 1486 1485 1484 1482 1480 1480 1480 1479 1479 1481 1483 1485 1487 1488 1490 1490 1490 1490 1490 1491 1492 1492 1491 1491 1490 1489 1488 1487 1486 1485
1517 1523 1530 1538 1538 1546 1547 1533 1506 1501 1498 1497 1495 1493 1491 1490 1488 1486 1485 1483 1482 1481 1480 1479 1478 1478 1479 1478 1479 1482 1484 1486 1487 1488 1488 1488 1489 1490 1490 1490 1490 1490 1489 1489 1488 1488 1487 1486 1485
1511 1517 1526 1533 1535 1541 1544 1530 1496 1496 1493 1493 1492 1490 1488 1487 1484 1482 1481 1480 1479 1478 1478 1478 1478 1477 1478 1479 1480 1481 1483 1484 1485 1486 1486 1487 1488 1489 1489 1489 1489 1489 1489 1489 1488 1488 1487 1486 1485